Regional Weather Roundup
Issued by NWS

Home | Current Version | Previous Version | Graphics & Text | Print | Product List | Glossary On
Versions: 1 2 3 4 5 6 7 8 9 10 11 12 13 14 15 16 17 18 19 20 21 22 23 24 25 26 27 28 29 30 31 32 33 34 35 36 37 38 39 40 41 42 43 44 45 46 47 48 49 50
000
ASUS43 KDMX 251807
RWRIA

WEATHER ROUNDUP FOR IOWA
NATIONAL WEATHER SERVICE DES MOINES IA
1200 PM CST TUE NOV 25 2014

NOTE: "FAIR" INDICATES FEW OR NO CLOUDS BELOW 12,000 FEET WITH NO
SIGNIFICANT WEATHER AND/OR OBSTRUCTIONS TO VISIBILITY.

* - THESE STATIONS ARE NOT NWS STATIONS...THUS NOT UNDER NWS
QUALITY CONTROL.  THEY ALSO DO NOT REPORT WEATHER SUCH
AS PRECIPITATION OR FOG.

IAZ001>003-012>014-020>022-031>034-043>046-251900-
   NORTHWEST IOWA

CITY           SKY/WX    TMP DP  RH WIND       PRES   REMARKS
CARROLL *      SUNNY     32   5  32 SW10      30.08F WCI  24
CHEROKEE *     SUNNY     32  10  39 SW7       30.04F WCI  26
DENISON *      MOSUNNY   34   9  35 SW9G15    30.05F WCI  26
LE MARS *      SUNNY     32  14  47 S10       30.04F WCI  24
ORANGE CITY *  SUNNY     34  10  37 S13       30.02F WCI  25
SHELDON *      SUNNY     32  10  40 S12       30.01F WCI  23
SIOUX CITY       N/A     37  19  48 S8        30.04F WCI  31
6HR MIN TEMP:  12; 6HR MAX TEMP:  37;

SPENCER        PTSUNNY   30   6  36 S7        30.04F WCI  23
6HR MIN TEMP:   9; 6HR MAX TEMP:  31;

STORM LAKE *   SUNNY     30   7  37 SW8G14    30.05F WCI  23
$$

IAZ055>058-069>071-079>083-090>094-251900-
   SOUTHWEST IOWA

CITY           SKY/WX    TMP DP  RH WIND       PRES   REMARKS
ATLANTIC *     MOSUNNY   32   7  34 SW10      30.10F WCI  24
AUDUBON *      SUNNY     32   0  25 SW6       30.09F WCI  26
CLARINDA *     SUNNY     36   7  30 SW8       30.15F WCI  29
COUNCIL BLFS * SUNNY     36  14  41 S8G15     30.07F WCI  29
CRESTON *      SUNNY     32  10  40 SW9       30.11F WCI  24
HARLAN  *      PTSUNNY   36   9  32 S8        30.12F WCI  29
LAMONI         SUNNY     31  12  45 SW8       30.13F WCI  23
6HR MIN TEMP:  16; 6HR MAX TEMP:  31;

RED OAK *      SUNNY     36   7  30 SW8G14    30.12F WCI  29
SHENANDOAH *   SUNNY     36  10  35 S9        30.13F WCI  29
$$

IAZ047>049-059>061-072>074-084-251900-
   CENTRAL IOWA

CITY           SKY/WX    TMP DP  RH WIND       PRES   REMARKS
AMES           SUNNY     28  13  53 SW7       30.11F WCI  21
6HR MIN TEMP:  14; 6HR MAX TEMP:  28;

ANKENY *       SUNNY     30  10  43 SW7       30.13F WCI  23
CHARITON *     SUNNY     30  12  47 CALM      30.13F
DES MOINES     MOSUNNY   31  11  43 VRB6      30.13F WCI  25
6HR MIN TEMP:  17; 6HR MAX TEMP:  32;

GRINNELL*      SUNNY     27  18  69 SW8       30.11F WCI  18
KNOXVILLE *    SUNNY     30  14  51 W7        30.12F WCI  23
MARSHALLTOWN   SUNNY     24  17  74 SW10      30.11S WCI  14
6HR MIN TEMP:  11; 6HR MAX TEMP:  24;

PELLA *        SUNNY     29  17  61 W8        30.14F WCI  21
PERRY *          N/A     30  12  47 SW7       30.11F WCI  23
$$

IAZ004>006-015-016-023>025-035-036-251900-
   NORTH CENTRAL IOWA

CITY           SKY/WX    TMP DP  RH WIND       PRES   REMARKS
ALGONA *       SUNNY     28   9  43 SW9       30.07F WCI  20
CLARION *      MOSUNNY   27  10  50 W7        30.08F WCI  19
ESTHERVILLE    SUNNY     28   8  43 SW7       30.04F WCI  21
6HR MIN TEMP:   8; 6HR MAX TEMP:  28;

FORT DODGE *   SUNNY     28   9  43 W8        30.09F WCI  20
MASON CITY     SUNNY     22  13  68 MISG      30.09S
6HR MIN TEMP:   7; 6HR MAX TEMP:  22;

FOREST CITY *  SUNNY     25  14  63 W7        30.07F WCI  17
IOWA FALLS *     N/A     27  16  63 SW8       30.10S WCI  18
$$

IAZ007>011-017>019-026>030-037>042-050>054-066-251900-
   NORTHEAST IOWA

CITY           SKY/WX    TMP DP  RH WIND       PRES   REMARKS
CEDAR RAPIDS   SUNNY     23  17  78 W13       30.11F WCI  11
6HR MIN TEMP:  13; 6HR MAX TEMP:  23; 6HR PCP: TRACE;

CHARLES CITY * SUNNY     19  10  68 W6        30.09F WCI  11
CLINTON *      SUNNY     19  12  73 W12       30.14F WCI   7
DECORAH *      SUNNY     18  10  73 W8        30.07R WCI   7
DUBUQUE        SUNNY     19  13  77 W10       30.08S WCI   7
6HR MIN TEMP:  12; 6HR MAX TEMP:  19;

MONTICELLO *   SUNNY     21  16  79 W10       30.11S WCI  10
OELWEIN *      SUNNY     19  12  73 W9        30.10S WCI   9
WATERLOO       SUNNY     20  12  71 SW7       30.11S WCI  11
6HR MIN TEMP:  10; 6HR MAX TEMP:  21;

$$

IAZ064-065-067-068-078-251900-
   EAST CENTRAL IOWA

CITY           SKY/WX    TMP DP  RH WIND       PRES   REMARKS
DAVENPORT      SUNNY     20  13  74 SW10      30.13F WCI   9
6HR MIN TEMP:  14; 6HR MAX TEMP:  20; 6HR PCP: TRACE;

MT. PLEASANT * SUNNY     26  17  68 SW7       30.16F WCI  19
MUSCATINE *    SUNNY     25  18  74 SW9       30.16F WCI  15
$$

IAZ062-063-075>077-085>089-095>099-251900-
   SOUTHEAST IOWA

CITY           SKY/WX    TMP DP  RH WIND       PRES   REMARKS
BURLINGTON     SUNNY     26  20  77 W7        30.15F WCI  18
6HR MIN TEMP:  22; 6HR MAX TEMP:  26;

FAIRFIELD *    SUNNY     27  18  69 W7        30.15F WCI  19
FORT MADISON * SUNNY     28  21  74 W7        30.16F WCI  21
KEOKUK *       SUNNY     30  21  69 W10       30.16F WCI  21
OSKALOOSA *      N/A     28  19  68 W8        30.14F WCI  20
CENTERVILLE *  SUNNY     32  19  59 SW10      30.16S WCI  24
OTTUMWA        SUNNY     29  18  63 W8        30.14F WCI  21
6HR MIN TEMP:  17; 6HR MAX TEMP:  29;

WASHINGTON *   SUNNY     25  21  86 W8        30.14F WCI  16
$$

ABBREVIATIONS USED IN REMARKS
   TC - TEMPERATURES IN CELSIUS
  WCI - WIND CHILL INDEX
   HX - HEAT INDEX
  VSB - VISIBILITY
$$




USA.gov is the U.S. government's official web portal to all federal, state and local government web resources and services.